This is the latest recevied weather packets stored in our database for station/object W8AN. If no packets are shown the sender has not sent any weather packets the latest 10 day(s).
| Time | Temp. | Humidity | Pressure | Rain* | Wind** | Luminosity | Snow |
|---|---|---|---|---|---|---|---|
| 1777821367 | 12.78° C | 50% | 4270.6 hPa | 0 mm | - | 808 W/m² | - |
| 1777821063 | 12.78° C | 52% | 4270.6 hPa | 0 mm | - | 805 W/m² | - |
| 1777820760 | 12.22° C | 51% | 4270.4 hPa | 0 mm | - | 797 W/m² | - |
| 1777820456 | 12.22° C | 50% | 4270.4 hPa | 0 mm | - | 778 W/m² | - |
| 1777820154 | 12.22° C | 51% | 4270.6 hPa | 0 mm | - | 764 W/m² | - |
| 1777819851 | 12.22° C | 52% | 4270.4 hPa | 0 mm | - | 748 W/m² | - |
| 1777819548 | 11.67° C | 53% | 4270.4 hPa | 0 mm | - | 730 W/m² | - |
| 1777819245 | 11.67° C | 55% | 4270.6 hPa | 0 mm | - | 717 W/m² | - |
| 1777818937 | 11.11° C | 55% | 4270.3 hPa | 0 mm | - | 704 W/m² | - |
| 1777818633 | 11.11° C | 55% | 4270.6 hPa | 0 mm | - | 700 W/m² | - |
| 1777818331 | 10.56° C | 55% | 4270.8 hPa | 0 mm | - | 688 W/m² | - |
| 1777818026 | 10.56° C | 55% | 4270.6 hPa | 0 mm | - | 669 W/m² | - |
| 1777817724 | 10.56° C | 56% | 4270.6 hPa | 0 mm | - | 658 W/m² | - |
| 1777817421 | 10.56° C | 57% | 4270.9 hPa | 0 mm | - | 648 W/m² | - |
| 1777817117 | 10° C | 56% | 4270.9 hPa | 0 mm | - | 636 W/m² | - |
| 1777816814 | 10° C | 57% | 4270.9 hPa | 0 mm | - | 622 W/m² | - |
| 1777816512 | 10° C | 56% | 4270.9 hPa | 0 mm | - | 599 W/m² | - |
| 1777816209 | 10° C | 55% | 4270.9 hPa | 0 mm | - | 587 W/m² | - |
| 1777815906 | 10° C | 58% | 4270.6 hPa | 0 mm | - | 580 W/m² | - |
| 1777815603 | 9.44° C | 58% | 4270.9 hPa | 0 mm | - | 554 W/m² | - |
| 1777815300 | 9.44° C | 57% | 4270.4 hPa | 0 mm | - | 516 W/m² | - |
| 1777814997 | 8.89° C | 60% | 4270.9 hPa | 0 mm | - | 461 W/m² | - |
| 1777814694 | 8.89° C | 58% | 4270.9 hPa | 0 mm | - | 435 W/m² | - |
| 1777814390 | 8.89° C | 61% | 4270.8 hPa | 0 mm | - | 409 W/m² | - |
| 1777814087 | 8.33° C | 58% | 4270.7 hPa | 0 mm | - | 378 W/m² | - |
* Rain latest hour (hover to see other rain measurements)
** Current wind speed in m/s (hover to see current wind gust speed)